Regional Weather Roundup
Issued by NWS

Home | Current Version | Previous Version | Graphics & Text | Print | Product List | Glossary Off
Versions: 1 2 3 4 5 6 7 8 9 10 11 12 13 14 15 16 17 18 19 20 21 22 23 24 25 26 27 28 29 30 31 32 33 34 35 36 37 38 39 40 41 42 43 44 45 46 47 48 49 50

000
ASUS43 KMKX 171121
RWRWI

WISCONSIN REGIONAL WEATHER ROUNDUP
NATIONAL WEATHER SERVICE MILWAUKEE/SULLIVAN WI
600 AM CDT TUE OCT 17 2017

NOTE: "FAIR" INDICATES FEW OR NO CLOUDS BELOW 12,000 FEET WITH NO
SIGNIFICANT WEATHER AND/OR OBSTRUCTIONS TO VISIBILITY.

WIZ001-002-006>008-014>016-023>028-171200-
NORTHWEST WISCONSIN

CITY           SKY/WX    TMP DP  RH WIND       PRES   REMARKS
SUPERIOR ARPT  CLOUDY    43  38  83 SW7       29.96R
ASHLAND        CLOUDY    47  38  71 SW10      29.94R
HAYWARD        CLOUDY    35  32  88 CALM      29.98R
SIREN          CLEAR     38  36  94 CALM      29.98S
CUMBERLAND     CLEAR     37  34  87 CALM      29.99R
RICE LAKE      CLEAR     36  35  96 CALM      30.01R
CHETEK         CLEAR     37  37 100 CALM      30.00R
LADYSMITH      CLOUDY    36  34  93 CALM      30.01R
EAU CLAIRE     CLEAR     40  39  97 S3        30.00R
MENOMONIE      CLEAR     41  39  93 CALM      30.00S
NEW RICHMOND   PTCLDY    40  37  89 CALM      30.00R
OSCEOLA        CLOUDY    37  37 100 CALM      30.02R
$$

WIZ003>005-009-010-017-018-171200-
NORTH CENTRAL WISCONSIN

CITY           SKY/WX    TMP DP  RH WIND       PRES   REMARKS
MANITOWISH WTR CLOUDY    36  36 100 CALM      29.96S
ARBOR VITAE    CLOUDY    38  37  94 CALM      29.97R
WOODRUFF       CLOUDY    38  37  94 CALM      29.97R
RHINELANDER    CLEAR     39  36  89 W6        29.98R WCI  35
EAGLE RIVER    CLOUDY    37  36  95 CALM      29.96R
LAND O LAKES   CLOUDY    34  33  99 CALM      29.97S
PHILLIPS       CLEAR     37  37  97 CALM      29.98R
TOMAHAWK       CLEAR     34  32  94 CALM      29.99R
MEDFORD        CLEAR     43  36  77 SW3       30.00R
MERRILL        CLEAR     36  35  93 CALM      30.00R
$$

WIZ029-030-035-036-043>047-171200-
CENTRAL WISCONSIN

CITY           SKY/WX    TMP DP  RH WIND       PRES   REMARKS
WAUSAU         CLOUDY    45  37  73 S5        29.99S
MOSINEE        CLEAR     43  37  81 SW3       30.01S
MARSHFIELD     CLEAR     45  36  70 SW6       30.00S
STEVENS POINT  CLOUDY    36  36  99 S3        30.02S
WAUPACA        CLEAR     44  38  80 CALM      30.02S
WAUTOMA        CLEAR     35  34  96 MISG      30.04S
WISC RAPIDS    CLEAR     45  38  76 SW7       30.03R
CAMP DOUGLAS   CLEAR     51  40  64 SW9       30.03R
$$

WIZ011>013-019>022-031-037>040-048>050-171200-
NORTHEAST WISCONSIN

CITY           SKY/WX    TMP DP  RH WIND       PRES   REMARKS
ANTIGO         CLOUDY    40  36  84 W6        29.99S
SHAWANO        CLEAR     47  38  72 SW3       29.99S
OCONTO         PTCLDY    49  38  65 SW9       29.98S
STURGEON BAY   CLEAR     54  40  59 SW15      29.98S
GREEN BAY      CLEAR     48  41  76 S6        30.01S
MANITOWOC      CLEAR     54  39  57 W14       30.02S
APPLETON       PTCLDY    48  36  61 SW10      30.01S
CLINTONVILLE   CLEAR     43  37  81 SW5       30.01S
OSHKOSH        CLEAR     49  39  68 SW10      30.03R
$$

WIZ032>034-041-042-053>061-171200-
SOUTHWEST WISCONSIN

CITY           SKY/WX    TMP DP  RH WIND       PRES   REMARKS
LA CROSSE      CLEAR     51  42  71 S6        30.04R
SPARTA         CLEAR     46  39  76 CALM      30.05R
VIROQUA        CLEAR     49  41  75 CALM      30.06R
BOSCOBEL       CLEAR     42  39  89 CALM      30.09R
PRAIRIE DU CHI CLEAR     54  39  57 CALM      30.09R
PLATTEVILLE    CLOUDY    46  41  81 S9        30.12S
$$

WIZ056-057-062-063-064-067-068-171200-
SOUTH CENTRAL WISCONSIN

CITY           SKY/WX    TMP DP  RH WIND       PRES   REMARKS
REEDSBURG      CLEAR     50  39  66 SW9       30.06S
BARABOO/DELLS  CLEAR     50  38  62 SW9       30.05F
LONE ROCK      CLEAR     44  40  85 CALM      30.09R
MINERAL POINT  CLEAR     48  41  76 S8        30.11R
MADISON        CLEAR     52  39  61 SW8       30.09R
MIDDLETON      CLEAR     52  39  61 SW12G20   30.09S
WATERTOWN      CLEAR     48  40  73 SW10      30.09S
MONROE         CLEAR     45  37  76 SW16      30.12S
JANESVILLE     CLEAR     48  37  66 SW12      30.13S
$$

WIZ051-052-058>065-066-070>072-171200-
SOUTHEAST WISCONSIN

CITY           SKY/WX    TMP DP  RH WIND       PRES   REMARKS
MILWAUKEE      PTCLDY    50  39  66 SW14      30.11S
WAUKESHA       CLEAR     46  36  66 S7        30.12S
MILWAUKEE/TIMM CLEAR     50  34  53 SW13      30.10F
RACINE         CLEAR     51  38  60 SW13      30.13F
BURLINGTON     CLEAR     47  41  78 SW10      30.13S
KENOSHA        CLEAR     50  38  63 SW12      30.14S
FOND DU LAC    CLEAR     50  37  61 SW16G22   30.04S
SHEBOYGAN      CLEAR     53  40  61 SW12      30.04S
WEST BEND      CLEAR     52  36  54 SW12G17   30.06F
JUNEAU         CLEAR     46  38  76 S5        30.08S
$$

LSZ147-162-171200-
LAKE SUPERIOR

STATION/POSITION TIME  TEMP    WIND        PRES    WAVE
                       AIR SEA DIR/SP/G            HT/PER
                 (UTC) (F)     (DEG/KT/KT) (MB)    (FT/S)
W MID LAKE BUOY  1050   54 53              1012.0R   3/ 5
DEVILS ISLAND    1100   55     230/ 15/ 17 1013.4R
PORT WING        0940          150/  2/  6 1013.2
SAXON HARBOR     1030   49     190/  6/  9 1013.2R
$$

LMZ867-665-643>646-171200-
LAKE MICHIGAN

STATION/POSITION TIME  TEMP    WIND        PRES    WAVE
                       AIR SEA DIR/SP/G            HT/PER
                 (UTC) (F)     (DEG/KT/KT) (MB)    (FT/S)
S GREEN BAY BUOY 1100   55 58  220/ 19/ 23 1014.8
N MID LAKE BUOY  1050   58 60  230/ 21/ 25 1014.4R   6/ 7
NORTHPORT PIER   1040   54     250/  9/ 17 1014.2S
KEWAUNEE LAKESHO 1054   55     260/ 11/ 15 1015.0R
SHEBOYGAN LAKESH 1100   55     250/ 16/ 19 1016.9F
PORT WASHINGTON  1040   56     250/ 13/ 20 1018.6F
MILWAUKEE LAKESH 1050   54     240/ 16/ 20   N/A
S MID LAKE BUOY  1050   60 62  240/ 21/ 27 1020.6F   4/ 5
KENOSHA   LAKESH 1100   53     230/ 13/ 20 1020.3
$$

TC  - TEMPERATURE IN CELSIUS
VSB - VISIBILITY IN STATUTE MILES
WCI - WIND CHILL INDEX
HX  - HEAT INDEX





USA.gov is the U.S. government's official web portal to all federal, state and local government web resources and services.